Regional Weather Roundup
Issued by NWS Newport/Morehead, NC

Home | Current Version | Previous Version | Text Only | Print | Product List | Glossary On
Versions: 1 2 3 4 5 6 7 8 9 10 11 12 13 14 15 16 17 18 19 20 21 22 23 24 25 26 27 28 29 30 31 32 33 34 35 36 37 38 39 40 41 42 43 44 45 46 47 48 49 50
000
ASUS42 KMHX 011724
RWRMHX
WEATHER ROUNDUP FOR EASTERN NORTH CAROLINA
NATIONAL WEATHER SERVICE NEWPORT/MOREHEAD CITY NC
1200 PM EST SUN MAR 01 2015

NOTE: "FAIR" INDICATES FEW OR NO CLOUDS BELOW 12,000 FEET
WITH NO SIGNIFICANT WEATHER AND/OR OBSTRUCTIONS TO VISIBILITY

NCZ015>017-031-032-045>047-102-103-011800-
NORTH COAST

CITY           SKY/WX    TMP DP  RH WIND       PRES   REMARKS
EDENTON        CLOUDY    37  35  94 N5        30.52F
ELIZABETH CITY LGT RAIN  39  35  86 NW6       30.54F
KITTY HAWK     DRIZZLE   45  45 100 E3        30.51F
MANTEO         DRIZZLE   48  46  93 CALM      30.52F

$$

NCZ045>047-081-094-103-104-011800-
CENTRAL COAST

CITY           SKY/WX    TMP DP  RH WIND       PRES   REMARKS
FRISCO         CLOUDY    53  45  74 SE9       30.52F
SWANQUARTER      N/A     55 N/A N/A NE7       30.44F

$$

NCZ095-097-098-100-101-011800-
SOUTHERN COAST

CITY           SKY/WX    TMP DP  RH WIND       PRES   REMARKS
BEAUFORT       CLOUDY    63  53  70 E10       30.46F
CEDAR ISLAND     N/A     45 N/A N/A N1        30.50F
JACKSONVILLE   CLOUDY    52  40  63 CALM      30.47F
PINEY ISLAND     N/A    N/A N/A N/A MISG      30.49F
WILMINGTON     CLOUDY    56  47  71 E3        30.47F


$$

NCZ011>013-027>030-043-044-078>080-089-090>093-098-011800-
COASTAL PLAIN

CITY           SKY/WX    TMP DP  RH WIND       PRES   REMARKS
AHOSKIE        DRIZZLE   32  30  94 CALM      30.54F
CLINTON        CLOUDY    37  37  99 NE5       30.50S FOG
ELIZABETHTOWN  RAIN      38  36  91 NW5       30.50F
GOLDSBORO      MIX PCPN  36  36 100 NE5       30.49F FOG
GREENVILLE     CLOUDY    36  34  93 N7        30.53F
HAVELOCK       PTSUNNY   54  41  61 N10       30.49F
KENANSVILLE    CLOUDY    37  35  94 NE3       30.50F
KINSTON        DRIZZLE   37  34  87 N8        30.53F
NEW BERN       CLOUDY    48  38  68 N5        30.50F
RICHLANDS      CLOUDY    46  37  71 N6        30.48F
ROCKY MOUNT    CLOUDY    33  32  96 VRB3      30.52F FOG
WASHINGTON     PTSUNNY   39  36  90 N3        30.52F
WHITEVILLE     DRIZZLE   42  36  79 CALM      30.48F

$$

AMZ130-135-150-152-154-156-158-170-250-252-270-ANZ085-086-088-633-658-670-011800-
MARINE OBSERVATIONS

STATION/POSITION TIME  TEMP    WIND        PRES    WAVE   SWELL
                       AIR SEA DIR/SP/G            HT/PER HT/PER
                 (UTC) (F)     (DEG/KT/KT) (MB)    (FT/S) (FT/S)
CHESAPEAKE LIGHT 1700   35      30/ 14/ 15 1033.8
64 E VA BEACH    1650   58 61  170/ 19/ 21 1033.2    4/ 5   2/10
DUCK             1700   36 34  350/  6/  6 1032.5
2 E DUCK         1611      34                N/A     3/ 9
10 NE DUCK       1622      36                N/A     3/10
OREGON INLET     1700   46 38  110/  6/  9 1033.2
HATTERAS CG      1600   50 39  140/  8/ 14 1034.1
CAPE LOOKOUT     1700   58     120/ 11/ 12 1031.6
BEAUFORT LAB     1700   59 41  130/ 10/ 14 1030.8
27 SE WRIGHTSVLE NOT AVBL
5 SE WRIGHTSVLE  NOT AVBL
225 S CAPE HAT   1650   68 72  110/ 17/ 21 1032.7    8/ 9   5/ 9
41 SE CHARLESTON 1650   70 68  140/ 16/ 17 1029.7    8/ 7   5/ 8

$$


USA.gov is the U.S. government's official web portal to all federal, state and local government web resources and services.